Regional Weather Roundup
Issued by NWS

Home | Current Version | Previous Version | Text Only | Print | Product List | Glossary On
Versions: 1 2 3 4 5 6 7 8 9 10 11 12 13 14 15 16 17 18 19 20 21 22 23 24 25 26 27 28 29 30 31 32 33 34 35 36 37 38 39 40 41 42 43 44 45 46 47 48 49 50
785
ASUS43 KLMK 191410
RWRKY
KENTUCKY REGIONAL WEATHER ROUNDUP
NATIONAL WEATHER SERVICE LOUISVILLE KY
900 AM EST THU JAN 19 2017

NOTE "FAIR" INDICATES FEW OR NO CLOUDS BELOW 12,000 FEET
WITH NO SIGNIFICANT WEATHER AND/OR OBSTRUCTIONS TO VISIBILITY.

KYZ001>023-026-027-061>063-070>075-191500-
WESTERN AND SOUTH CENTRAL KENTUCKY

CITY           SKY/WX    TMP DP  RH WIND       PRES   REMARKS
PADUCAH        HVY RAIN  47  44  90 E7        29.93S FOG
HENDERSON      CLOUDY    45  37  76 E6        29.98F
OWENSBORO      CLOUDY    45  40  82 E7        30.00F
HOPKINSVILLE   CLOUDY    46  46 100 E7        29.96F FOG
BOWLING GREEN  CLOUDY    47  43  86 E5        30.01F
GLASGOW        DRIZZLE   45  45 100 E3        30.02F
$$

KYZ024-025-028>034-038-045-046-053-191500-
NORTH CENTRAL KENTUCKY

CITY           SKY/WX    TMP DP  RH WIND       PRES   REMARKS
LOUISVILLE/SDF CLOUDY    43  37  79 E5        30.04F
LOUISVILLE/LOU CLOUDY    43  37  79 E5        30.05F
FORT KNOX      CLOUDY    41  38  91 E6        30.02S
$$

KYZ035>037-039>044-047>052-055>060-089>105-191500-
NORTHEAST KENTUCKY

CITY           SKY/WX    TMP DP  RH WIND       PRES   REMARKS
LEXINGTON      CLOUDY    42  37  82 E7        30.05F
COVINGTON      CLOUDY    38  37  97 SE6       30.07S FOG     WCI  33
FRANKFORT      CLOUDY    40  36  86 E5        30.05F
$$

KYZ054-064>069-076>088-106>120-191500-
SOUTHEAST KENTUCKY

CITY           SKY/WX    TMP DP  RH WIND       PRES   REMARKS
JACKSON        MOSUNNY   38  35  89 E3        30.08R
LONDON         CLOUDY    41  37  86 E3        30.04F
SOMERSET       CLOUDY    41  39  93 CALM      30.06R
MIDDLESBORO    CLOUDY    40  40  99 CALM      30.09S
MONTICELLO     CLOUDY    45  41  86 N9        30.06S
$$





USA.gov is the U.S. government's official web portal to all federal, state and local government web resources and services.